リニア彗星

247P/LINEAR (2018)

English version
Home page
Updated on April 4, 2021

---------------------------------------------------------------------

・ プロフィール

・ 写真集

・ 軌道要素

Epoch 2018 Nov. 18.0 TT = JDT 2458440.5                                         
T 2018 Dec. 2.10361 TT                                  Rudenko                 
q   1.4890618            (2000.0)            P               Q                  
n   0.12454432     Peri.   47.44841     -0.18180871     -0.96458499             
a   3.9711847      Node    54.01094     +0.81874621     -0.25612776             
e   0.6250334      Incl.   13.66160     +0.54461017     +0.06304267             
P   7.91                                                                        
From 1373 observations 2002 Nov. 5-2019 Apr. 8, mean residual 0".7.             

・ 光度変化

        m1 = 14.0 + 5 logΔ + 22.0 log r(t - 30)

---------------------------------------------------------------------

軌道要素はM.P.E.C. 2021-F20に掲載されたものです。
光度グラフはComet for Windowsで作成したものです。

---------------------------------------------------------------------

Copyright(C) Seiichi Yoshida (comet@aerith.net). All rights reserved.